Home   Weather   Accra   Past weeks

Flag for Ghana Past Weather in Accra, Ghana — Yesterday and Last 2 Weeks

Now
84 °F

Passing clouds.


Feels Like: 96 °F
Forecast: N/A
Wind: 10 mph from South

Location: Accra Airport

Current Time: Feb 22, 2017 at 10:28:28 pm

Latest Report: Feb 22, 2017 at 10:00 pm


Visibility: 5 mi

Pressure: 29.86 "Hg

Humidity: 84%

Dew Point: 79 °F

Location of AccraLocation

Past Weather in Accra — Graph

°F

Accra Temperature Yesterday

Maximum temperature yesterday: 90 °F (at 12:00 pm)
Minimum temperature yesterday: 81 °F (at 3:00 am)
Average temperature yesterday: 84 °F

High & Low Weather Summary for the Past Weeks

 TemperatureHumidityPressure
High91 °F (Feb 14, 1:00 pm)94% (Feb 7, 9:00 pm)30.12 "Hg (Feb 7, 9:00 pm)
Low75 °F (Feb 13, 3:00 pm)43% (Feb 18, 4:00 pm)29.71 "Hg (Feb 10, 3:00 pm)
Average83 °F82%29.83 "Hg
* Reported Feb 7 9:00 pm — Feb 22 9:00 pm, Accra, Weather by CustomWeather, © 2017

Note: Actual official high and low records may vary slightly from our data, if they occured in-between our weather recording intervals... More about our weather records

Advertising

Accra Weather History for the Previous 24 Hours

Scroll right to see more
 ConditionsComfort  
Time TempWeatherWind HumidityBarometerVisibility
9:00 pm
Wed, Feb 22
84 °FPassing clouds.10 mph84%29.86 "Hg5 mi
7:00 pm84 °FPassing clouds.12 mph84%29.80 "Hg5 mi
6:00 pm84 °FFog.104 mph84%29.80 "Hg3 mi
5:00 pm86 °FHaze.14 mph79%29.77 "Hg3 mi
4:00 pm88 °FHaze.14 mph70%29.77 "Hg3 mi
3:00 pm88 °FHaze.17 mph66%29.77 "Hg3 mi
2:00 pm90 °FHaze.12 mph63%29.77 "Hg3 mi
1:00 pm90 °FHaze.9 mph59%29.80 "Hg2 mi
12:00 pm90 °FScattered clouds.10 mph59%29.86 "Hg2 mi
11:00 am88 °FHaze.6 mph66%29.89 "Hg2 mi
10:00 am86 °FScattered clouds.8 mph75%29.89 "Hg2 mi
9:00 am82 °FFog.7 mph89%29.89 "Hg2 mi
8:00 am81 °FClear.7 mph89%29.86 "Hg4 mi
7:00 am79 °FClear.5 mph94%29.86 "Hg4 mi
6:00 am81 °FClear.5 mph89%29.83 "Hg5 mi
5:00 am81 °FClear.6 mph89%29.83 "Hg5 mi
4:00 am81 °FClear.5 mph89%29.80 "Hg5 mi
3:00 am82 °FPassing clouds.7 mph84%29.83 "Hg5 mi
2:00 am82 °FPassing clouds.7 mph84%29.83 "Hg5 mi
1:00 am82 °FPassing clouds.8 mph84%29.86 "Hg5 mi
12:00 am82 °FClear.7 mph84%29.89 "Hg5 mi
11:00 pm
Tue, Feb 21
84 °FClear.8 mph79%29.89 "Hg5 mi
10:00 pm82 °FPassing clouds.8 mph89%29.89 "Hg5 mi
Weather by CustomWeather, © 2017

See weather overviewHow to use our weather pages